Flag for Denmark Weather past 2 weeks in Vejle, Denmark

Now
34 °F

Drizzle. Broken clouds.


Feels Like: 26 °F
Forecast: 34 / 40 °F
Wind: 9 mph from East

Location: Billund Lufthavn

Current Time: Mar 31, 2015 at 12:39:03 PM

Latest Report: Mar 31, 2015 at 12:20 PM


Visibility: 4 mi

Pressure: 28.82 "Hg

Humidity: 100%

Dew point: 34 °F

Location of VejleLocation

Historic Weather in Vejle — Graph

°F

Vejle temperature yesterday

Maximum temperature yesterday: 45 °F (at 12:20 PM)
Minimum temperature yesterday: 37 °F (at 7:20 AM)
Average temperature yesterday: 41 °F

Past Weeks' High & Low Weather Summary

 TemperatureHumidityPressure
High55 °F (Mar 19, 1:50 PM)100% (Mar 19, 11:50 PM)30.54 "Hg (Mar 19, 11:50 PM)
Low21 °F (Mar 22, 5:50 AM)28% (Mar 19, 4:20 PM)28.82 "Hg (Mar 31, 8:50 AM)
Average41 °F80%29.92 "Hg
* Reported Mar 16 10:20 AM — Mar 31 11:20 AM, Vejle, Weather by CustomWeather, © 2015

Note: Actual official high and low records may vary slightly from our data, if they occured in-between our weather recording intervals... More about our weather records

Advertising

Vejle weather history for previous 24 hours

 ConditionsComfort  
Time TempWeatherWind HumidityBarometerVisibility
11:20 AM
Tue, Mar 31
34 °FLight snow. Partly sunny.9 mph93%28.82 "Hg4 mi
10:50 AM34 °FLight snow. Broken clouds.13 mph93%28.82 "Hg4 mi
10:20 AM34 °FLight snow. Partly sunny.13 mph93%28.82 "Hg3 mi
9:50 AM32 °FLight snow. Partly sunny.16 mph100%28.82 "Hg1 mi
9:20 AM32 °FLight snow. Partly sunny.16 mph100%28.82 "Hg1 mi
8:50 AM32 °FLight snow. Broken clouds.17 mph100%28.82 "Hg1 mi
8:20 AM32 °FLight snow. Partly sunny.16 mph100%28.85 "Hg1 mi
7:50 AM32 °FLight snow. Partly cloudy.17 mph100%28.88 "Hg1 mi
7:20 AM32 °FSnow. Passing clouds.14 mph100%28.91 "Hg1 mi
6:51 AM32 °FSnow. Passing clouds.14 mph100%28.91 "Hg1 mi
6:20 AM34 °FLight snow. Passing clouds.13 mph93%28.97 "Hg1 mi
6:01 AM34 °FLight rain. Passing clouds.14 mph93%28.97 "Hg1 mi
5:20 AM36 °FLight rain. Passing clouds.13 mph93%29.06 "Hg4 mi
4:50 AM36 °FLight rain. Passing clouds.9 mph93%29.09 "HgN/A
4:20 AM36 °FLight rain. Passing clouds.12 mph93%29.15 "Hg4 mi
3:50 AM37 °FLight rain. Partly cloudy.10 mph87%29.18 "HgN/A
3:20 AM39 °FSprinkles. Partly cloudy.12 mph81%29.21 "HgN/A
2:50 AM39 °FSprinkles. Passing clouds.13 mph87%29.24 "Hg5 mi
2:20 AM39 °FPassing clouds.9 mph87%29.30 "HgN/A
1:20 AM37 °FPartly cloudy.6 mph87%29.33 "HgN/A
12:50 AM37 °FPassing clouds.7 mph87%29.36 "HgN/A
12:20 AM37 °FPassing clouds.8 mph81%29.39 "HgN/A
11:50 PM
Mon, Mar 30
37 °FPassing clouds.7 mph81%29.42 "HgN/A
11:20 PM37 °FPassing clouds.9 mph81%29.42 "HgN/A
10:50 PM39 °FPassing clouds.13 mph75%29.42 "HgN/A
10:20 PM39 °FPassing clouds.13 mph75%29.45 "HgN/A
9:50 PM37 °FPassing clouds.15 mph81%29.45 "HgN/A
9:20 PM39 °FPassing clouds.21 mph75%29.45 "HgN/A
8:50 PM39 °FScattered clouds.18 mph75%29.45 "HgN/A
8:20 PM39 °FScattered clouds.17 mph81%29.45 "HgN/A
7:50 PM41 °FScattered clouds.20 mph76%29.45 "HgN/A
7:20 PM39 °FScattered clouds.20 mph81%29.42 "HgN/A
6:50 PM39 °FScattered clouds.24 mph87%29.42 "HgN/A
6:20 PM39 °FBroken clouds.28 mph87%29.39 "HgN/A
5:50 PM43 °FBroken clouds.29 mph71%29.36 "HgN/A
5:20 PM41 °FBroken clouds.26 mph87%29.36 "HgN/A
4:50 PM43 °FScattered showers. Broken clouds.24 mph81%29.33 "HgN/A
4:20 PM43 °FSprinkles. Broken clouds.22 mph81%29.30 "HgN/A
3:50 PM43 °FSprinkles. Broken clouds.28 mph76%29.30 "HgN/A
3:20 PM43 °FBroken clouds.25 mph76%29.27 "HgN/A
2:50 PM45 °FBroken clouds.29 mph81%29.27 "HgN/A
2:20 PM45 °FPartly sunny.20 mph76%29.24 "HgN/A
1:50 PM43 °FPartly sunny.25 mph76%29.21 "HgN/A
1:20 PM45 °FPartly sunny.22 mph76%29.21 "HgN/A
12:50 PM45 °FPartly sunny.21 mph76%29.18 "HgN/A
12:20 PM45 °FBroken clouds.25 mph71%29.18 "HgN/A
Weather by CustomWeather, © 2015

See weather overviewHow to use our weather pages